Flag for Canada Weather past 2 weeks in Ottawa, Ontario, Canada

Now
64 °F

Passing clouds.


Feels Like: 64 °F
Forecast: 59 / 70 °F
Wind: 10 mph from North

Location: Ottawa Int'L. Ont.

Current Time: Jul 28, 2014 at 12:39:41 AM

Latest Report: Jul 28, 2014 at 12:00 AM


Visibility: 15 mi

Pressure: 29.67 "Hg

Humidity: 88%

Dew point: 61 °F

Location of OttawaLocation

Historic Weather in Ottawa — Graph

°F

Ottawa temperature yesterday

Maximum temperature yesterday: 75 °F (at 4:00 PM)
Minimum temperature yesterday: 63 °F (at 5:00 AM)
Average temperature yesterday: 68 °F

Past Weeks' High & Low Weather Summary

 TemperatureHumidityPressure
High84 °F (Jul 22, 12:00 PM)100% (Jul 13, 11:00 AM)30.26 "Hg (Jul 13, 11:00 AM)
Low50 °F (Jul 17, 5:00 AM)41% (Jul 24, 3:00 PM)29.61 "Hg (Jul 27, 5:00 PM)
Average68 °F74%29.93 "Hg
* Reported Jul 12 11:00 PM — Jul 27 11:00 PM, Ottawa, Weather by CustomWeather, © 2014

Note: Actual official high and low records may vary slightly from our data, if they occured in-between our weather recording intervals... More about our weather records

Advertising

Ottawa weather history for previous 24 hours

 ConditionsComfort  
Time TempWeatherWind HumidityBarometerVisibility
11:00 PM
Jul 27
66 °FPassing clouds.9 mph83%29.66 "Hg15 mi
10:00 PM66 °FPassing clouds.8 mph83%29.66 "Hg15 mi
9:00 PM68 °FPartly sunny.8 mph78%29.67 "Hg15 mi
8:00 PM70 °FBroken clouds.10 mph73%29.64 "Hg15 mi
7:00 PM73 °FPartly sunny.9 mph69%29.63 "Hg15 mi
6:00 PM73 °FPartly sunny.9 mph74%29.63 "Hg15 mi
5:00 PM73 °FPartly sunny.10 mph78%29.61 "Hg15 mi
4:00 PM75 °FPartly sunny.7 mph78%29.62 "Hg15 mi
3:00 PM73 °FBroken clouds.6 mph78%29.62 "Hg15 mi
2:00 PM73 °FPartly sunny.9 mph74%29.63 "Hg15 mi
1:00 PM73 °FPartly sunny.10 mph74%29.63 "Hg15 mi
12:00 PM72 °FPartly sunny.10 mph78%29.65 "Hg15 mi
11:00 AM72 °FPartly sunny.12 mph78%29.64 "Hg15 mi
10:00 AM70 °FPartly sunny.8 mph83%29.65 "Hg15 mi
9:00 AM64 °FPartly sunny.10 mph94%29.66 "Hg15 mi
8:00 AM64 °FPartly sunny.8 mph94%29.66 "Hg10 mi
7:50 AM63 °FPartly sunny.7 mph100%29.66 "Hg10 mi
7:00 AM63 °FBroken clouds.3 mph100%29.64 "Hg15 mi
6:00 AM63 °FPartly cloudy.3 mph94%29.65 "Hg15 mi
5:00 AM63 °FSprinkles. Mostly cloudy.6 mph94%29.67 "Hg10 mi
4:00 AM64 °FSprinkles. Mostly cloudy.7 mph94%29.69 "Hg10 mi
3:00 AM64 °FMostly cloudy.No wind94%29.69 "Hg10 mi
2:00 AM64 °FOvercast.5 mph94%29.70 "Hg15 mi
1:00 AM66 °FOvercast.7 mph83%29.73 "Hg15 mi
12:00 AM68 °FMostly cloudy.No wind78%29.76 "Hg15 mi
Weather by CustomWeather, © 2014

See weather overviewHow to use our weather pages